USA 40 R/B DEB, 23379

Orbit data source: Space-Track

USA 40 R/B DEB, 23379 is space debris originally from a launch on Tue, 08 Aug 1989 UTC launched from the Air Force Eastern Test Range (AFETR). Debris objects in space refer to the collection of defunct objects orbiting the Earth. Examples of debris include non-operational satellites, rocket bodies, and fragments generated from explosions, collisions, or faulty payload assembly.

Loading next visibility...
Identifier
23379, 1989-061BB
Orbit
Active
Country
Flag of USUS
Related business
Manufacturer
Unknown
Mission
Spacecraft
Bus & Motor
Unknown
Mass
Unknown
Launch date (UTC)
1989-08-08 (37 years ago)
Launch vehicle
Unknown
Launch site
Air Force Eastern Test Range (AFETR)
Object type
Payload
Rocket body
Debris
Shape & HBR
Unknown shape, 0.1 m
Radar Cross Section
Medium (>0.1 m² and <1 m²)

Expand to show TLE details & history
Last TLE update: 4 days ago

TLE from 4 days ago
0 USA 40 R/B DEB
1 23379U 89061BB  26169.39893907  .00007296  00000-0  53476-2 0  9991
2 23379  56.8720 280.7502 2979824 244.9483  81.4526  8.92867857232545
Epoch: 2026-06-18T09:34Z
TLE epoch observation values (Epoch: 2026-06-18T09:34:28.335Z)
Latitude
-0.00001°
Longitude
-129.5107°
Altitude
3,861.691 km
Speed
6.104 km/s
True Right ascension
18h 43m 00s
True Declination
0° 00' 00"
Sunlit
Object was in full shadow at epoch
Visualization orbit readout
Latitude
Unknown
Longitude
Unknown
Altitude
Unknown
Speed
Unknown
Apparent Right ascension
Unknown
Apparent Declination
Unknown
Sunlit
N/A
Visualization observer readout
Local Sidereal Time
03:48:12
Azimuth
Unknown
Elevation
Unknown
Doppler factor
Unknown
Orbital elements
Apogee altitude
6,360.831 km
Perigee altitude
511.771 km
Semi-major axis
9,814.438 km
Eccentricity
0.29798
Inclination
56.872°
RAAN
280.7502°
Arg. of periapsis
244.9483°
True anomaly
115.1346°
Mean anomaly
81.4526°
Eccentric anomaly
98.34497°
Mean motion
2.23226 °/min
Orbital period
161.27 mins
BSTAR
0.0053476
Loading maneuver chart data...
Computing Atmospheric mass density...
Loading historical data...
Loading historical data...
Loading historical data...
Loading historical data...
Loading historical data...
Loading historical data...
Loading historical data...

Documentation

Showing up to 5 results
|